FW2422 Weather Reports


Display with metric or nautical units.
time (UTC)temp
F
wind
direction
speed
MPH
gust
MPH
rain 1hr
in
rain 24hr
in
rain mn
in
humidity
%
barometer
mb
20260505211541 90 165 3.0 11.0 0.00 0.00 0.00 57 1003.6
20260505210044 90 120 2.0 9.0 0.00 0.00 0.00 56 1003.6
20260505204536 90 99 2.0 8.0 0.00 0.00 0.00 56 1004.0
20260505203037 90 219 0.0 11.0 0.00 0.00 0.00 56 1004.0
20260505201547 89 134 3.0 7.0 0.00 0.00 0.00 57 1004.1
20260505200033 89 98 1.0 8.0 0.00 0.00 0.00 58 1004.2
20260505194527 88 229 0.0 8.0 0.00 0.00 0.00 60 1004.3
20260505183114 85 131 1.0 7.0 0.00 0.00 0.00 62 1004.8
20260505181553 85 175 1.0 9.0 0.00 0.00 0.00 63 1004.8
20260505180050 84 127 0.0 8.0 0.00 0.00 0.00 65 1004.9
20260505174549 84 113 2.0 7.0 0.00 0.00 0.00 63 1005.0
20260505173052 84 182 1.0 8.0 0.00 0.00 0.00 65 1004.8
20260505171555 83 236 2.0 11.0 0.00 0.00 0.00 64 1004.9
20260505170044 83 97 0.0 8.0 0.00 0.00 0.00 67 1005.1
20260505164539 81 58 0.0 11.0 0.00 0.00 0.00 68 1005.1
20260505163037 82 41 0.0 10.0 0.00 0.00 0.00 67 1004.8
20260505161536 81 205 0.0 13.0 0.00 0.00 0.00 70 1004.7
20260505153028 79 100 1.0 9.0 0.00 0.00 0.00 74 1004.7
20260505151532 77 232 3.0 11.0 0.00 0.00 0.00 76 1004.8
20260505123007 0 0.0 0.0 0.00 0.00 0.00 1004.2
20260505121503 0 0.0 0.0 0.00 0.00 0.00 1004.2
20260505120117 0 0.0 0.0 0.00 0.00 0.00 1004.1
20260505114554 0 0.0 0.0 0.00 0.00 0.00 1004.1
20260505113050 0 0.0 0.0 0.00 0.00 0.00 1003.9
20260505111545 0 0.0 0.0 0.00 0.00 0.00 1004.0
20260505083026 71 207 4.0 13.0 0.00 0.00 0.00 84 1004.5
20260505081522 70 127 2.0 12.0 0.00 0.00 0.00 84 1004.6
20260505080024 71 194 2.0 12.0 0.00 0.00 0.00 83 1004.7
20260505074518 71 123 3.0 11.0 0.00 0.00 0.00 83 1005.0
20260505064559 72 189 1.0 13.0 0.00 0.00 0.00 80 1005.7
20260505054556 72 95 2.0 11.0 0.00 0.00 0.00 78 1005.9
20260505053034 72 205 4.0 11.0 0.00 0.00 0.00 77 1006.0
20260505051528 72 143 2.0 10.0 0.00 0.00 0.00 77 1006.2
20260505034512 74 137 2.0 9.0 0.00 0.00 0.00 72 1006.3
20260505033012 74 160 2.0 9.0 0.00 0.00 0.00 71 1006.3
20260505031529 74 101 1.0 7.0 0.00 0.00 0.00 71 1006.6
20260505030012 74 113 3.0 11.0 0.00 0.00 0.00 70 1006.5
20260505024541 74 66 1.0 9.0 0.00 0.00 0.00 70 1006.4
20260504223019 81 210 5.0 13.0 0.00 0.00 0.00 55 1006.8
20260504221518 81 118 3.0 14.0 0.00 0.00 0.00 56 1007.0
20260504220016 81 164 4.0 13.0 0.00 0.00 0.00 55 1007.3
20260504214514 81 226 4.0 12.0 0.00 0.00 0.00 54 1007.3
20260504213013 82 142 5.0 11.0 0.00 0.00 0.00 52 1007.6